This is the latest recevied weather packets stored in our database for station/object KR8N. If no packets are shown the sender has not sent any weather packets the latest 1 day(s).
| Time | Temp. | Humidity | Pressure | Rain* | Wind** | Luminosity | Snow |
|---|---|---|---|---|---|---|---|
| 1778083460 | 16.67° C | 87% | 1013.7 hPa | 0 mm | - | 102 W/m² | - |
| 1778082855 | 16.67° C | 86% | 1013.6 hPa | 0 mm | - | 48 W/m² | - |
| 1778081434 | 16.67° C | 86% | 1013.7 hPa | 0 mm | - | 71 W/m² | - |
| 1778081131 | 16.67° C | 86% | 1013.7 hPa | 0 mm | - | 83 W/m² | - |
| 1778079617 | 16.67° C | 87% | 1013.3 hPa | 0 mm | - | 137 W/m² | - |
| 1778079011 | 16.67° C | 87% | 1013.6 hPa | 0 mm | - | 99 W/m² | - |
| 1778077498 | 16.67° C | 86% | 1013.5 hPa | 0 mm | - | 356 W/m² | - |
| 1778076592 | 16.67° C | 86% | 1013.4 hPa | 0 mm | - | 299 W/m² | - |
| 1778075985 | 16.11° C | 88% | 1013.3 hPa | 0 mm | - | 325 W/m² | - |
| 1778074772 | 15.56° C | 90% | 1012.9 hPa | 0 mm | - | 192 W/m² | - |
| 1778073560 | 15° C | 92% | 1012.8 hPa | 0 mm | - | 169 W/m² | - |
| 1778071744 | 14.44° C | 93% | 1012.9 hPa | 0 mm | - | 65 W/m² | - |
| 1778071441 | 14.44° C | 93% | 1012.9 hPa | 0 mm | - | 96 W/m² | - |
| 1778070837 | 13.89° C | 94% | 1012.6 hPa | 0 mm | - | 127 W/m² | - |
| 1778070534 | 13.89° C | 95% | 1012.7 hPa | 0 mm | - | 142 W/m² | - |
| 1778069929 | 13.33° C | 95% | 1012.4 hPa | 0 mm | - | 108 W/m² | - |
| 1778067811 | 13.33° C | 94% | 1012.6 hPa | 3.56 mm | - | 20 W/m² | - |
| 1778066903 | 13.33° C | 94% | 1012.5 hPa | 1.27 mm | - | 15 W/m² | - |
| 1778066600 | 13.33° C | 94% | 1012.3 hPa | 1.27 mm | - | 10 W/m² | - |
| 1778065086 | 12.78° C | 94% | 1012 hPa | 1.27 mm | - | 6 W/m² | - |
| 1778064178 | 12.78° C | 94% | 1012.3 hPa | 1.78 mm | - | 1 W/m² | - |
| 1778063573 | 12.78° C | 94% | 1011.9 hPa | 0 mm | - | 1 W/m² | - |
| 1778062968 | 12.78° C | 94% | 1011.9 hPa | 1.27 mm | - | 0 W/m² | - |
| 1778062665 | 12.78° C | 94% | 1011.9 hPa | 1.27 mm | - | 0 W/m² | - |
| 1778062361 | 12.78° C | 94% | 1011.8 hPa | 0 mm | - | 0 W/m² | - |
* Rain latest hour (hover to see other rain measurements)
** Current wind speed in m/s (hover to see current wind gust speed)